Location: Bremen
(53.0793°N, 8.8017°E)
Time: 20:58:02
(UTC+01:00)

Tiros 1 - Pass Details

Date: 05 December 2021
Orbit: 629 x 664 km, 48.4° (Epoch: 18 January)

Event Time Altitude Azimuth Distance (km) Brightness Sun altitude
Rises 20:12:58 0° 246° (WSW) 2,925 11.2 -35.3°
Reaches altitude 10° 20:15:21 10° 240° (WSW) 2,023 10.2 -35.6°
Enters shadow 20:15:57 13° 238° (WSW) 1,806 9.9 -35.7°
